| time (UTC) | temp F | wind direction | speed knots | gust knots | rain 1hr in | rain 24hr in | rain mn in | humidity % | barometer mb |
| 20260831163530 | 65 | 166 | 0.9 | 0.0 | 0.00 | 0.00 | 0.00 | 95 | 1012.2 |
| 20260831163032 | 65 | 183 | 0.9 | 0.0 | 0.00 | 0.00 | 0.00 | 95 | 1012.2 |
| 20260831162530 | 65 | 213 | 0.0 | 0.0 | 0.00 | 0.00 | 0.00 | 96 | 1012.2 |
| 20260831162030 | 64 | 173 | 0.9 | 0.0 | 0.00 | 0.00 | 0.00 | 95 | 1012.2 |
| 20260831161533 | 64 | 161 | 0.9 | 0.0 | 0.00 | 0.00 | 0.00 | 95 | 1012.2 |
| 20260831161029 | 65 | 153 | 0.9 | 0.0 | 0.00 | 0.00 | 0.00 | 96 | 1012.0 |
| 20260831160529 | 64 | 167 | 0.9 | 0.0 | 0.00 | 0.00 | 0.00 | 96 | 1012.0 |
| 20260831160029 | 64 | 168 | 0.9 | 0.0 | 0.00 | 0.00 | 0.00 | 96 | 1012.0 |
| 20260831155529 | 64 | 163 | 0.9 | 0.0 | 0.00 | 0.00 | 0.00 | 95 | 1012.0 |
| 20260831155029 | 65 | 141 | 0.9 | 0.0 | 0.00 | 0.00 | 0.00 | 96 | 1012.0 |
| 20260831154529 | 65 | 192 | 0.9 | 0.0 | 0.00 | 0.00 | 0.00 | 96 | 1012.0 |
| 20260831154031 | 65 | 178 | 0.9 | 0.0 | 0.00 | 0.00 | 0.00 | 96 | 1012.0 |
| 20260831153529 | 65 | 202 | 0.9 | 0.0 | 0.00 | 0.00 | 0.00 | 96 | 1012.0 |
| 20260831153027 | 65 | 196 | 0.9 | 0.0 | 0.00 | 0.00 | 0.00 | 96 | 1012.0 |
| 20260831152527 | 65 | 221 | 1.7 | 0.0 | 0.00 | 0.00 | 0.00 | 96 | 1011.9 |
| 20260831152027 | 65 | 179 | 1.7 | 0.0 | 0.00 | 0.00 | 0.00 | 96 | 1011.9 |
| 20260831151527 | 65 | 192 | 1.7 | 0.0 | 0.00 | 0.00 | 0.00 | 96 | 1011.9 |
| 20260831151026 | 64 | 205 | 0.9 | 0.0 | 0.00 | 0.00 | 0.00 | 96 | 1011.5 |
| 20260831150527 | 64 | 130 | 0.9 | 0.0 | 0.00 | 0.00 | 0.00 | 96 | 1011.5 |
| 20260831150026 | 64 | 150 | 0.9 | 0.0 | 0.00 | 0.00 | 0.00 | 96 | 1011.5 |
| 20260831145526 | 64 | 140 | 0.9 | 0.0 | 0.00 | 0.00 | 0.00 | 96 | 1011.5 |
| 20260831145027 | 64 | 165 | 0.9 | 0.0 | 0.00 | 0.00 | 0.00 | 96 | 1011.5 |
| 20260831144525 | 64 | 200 | 0.9 | 0.0 | 0.00 | 0.00 | 0.00 | 96 | 1011.5 |
| 20260831144025 | 64 | 134 | 0.9 | 0.0 | 0.00 | 0.00 | 0.00 | 96 | 1011.5 |
| 20260831143525 | 64 | 152 | 0.0 | 0.0 | 0.00 | 0.00 | 0.00 | 96 | 1011.5 |
| 20260831143025 | 63 | 167 | 0.0 | 0.0 | 0.00 | 0.00 | 0.00 | 96 | 1011.5 |
| 20260831142524 | 63 | 167 | 0.0 | 0.0 | 0.00 | 0.00 | 0.00 | 96 | 1011.3 |
| 20260831142024 | 63 | 167 | 0.0 | 0.0 | 0.00 | 0.00 | 0.00 | 96 | 1011.3 |
| 20260831141524 | 63 | 167 | 0.0 | 0.0 | 0.00 | 0.00 | 0.00 | 96 | 1011.3 |
| 20260831141024 | 63 | 167 | 0.0 | 0.0 | 0.00 | 0.00 | 0.00 | 96 | 1010.9 |
| 20260831140527 | 63 | 167 | 0.0 | 0.0 | 0.00 | 0.00 | 0.00 | 95 | 1010.9 |
| 20260831140026 | 63 | 188 | 0.0 | 0.0 | 0.00 | 0.00 | 0.00 | 96 | 1010.9 |
| 20260831135523 | 63 | 112 | 0.0 | 0.0 | 0.00 | 0.00 | 0.00 | 96 | 1010.9 |
| 20260831135023 | 63 | 71 | 0.0 | 0.0 | 0.00 | 0.00 | 0.00 | 96 | 1010.9 |
| 20260831134524 | 62 | 71 | 0.0 | 0.0 | 0.00 | 0.00 | 0.00 | 95 | 1010.9 |
| 20260831134022 | 62 | 71 | 0.0 | 0.0 | 0.00 | 0.00 | 0.00 | 95 | 1010.9 |
| 20260831133521 | 62 | 71 | 0.0 | 0.0 | 0.00 | 0.00 | 0.00 | 95 | 1010.9 |
| 20260831133021 | 62 | 71 | 0.0 | 0.0 | 0.00 | 0.00 | 0.00 | 95 | 1010.9 |
| 20260831132521 | 62 | 71 | 0.0 | 0.0 | 0.00 | 0.00 | 0.00 | 94 | 1010.7 |
| 20260831132020 | 62 | 71 | 0.0 | 0.0 | 0.00 | 0.00 | 0.00 | 94 | 1010.7 |
| 20260831131533 | 63 | 71 | 0.0 | 0.0 | 0.00 | 0.00 | 0.00 | 95 | 1010.7 |
| 20260831131023 | 63 | 71 | 0.0 | 0.0 | 0.00 | 0.00 | 0.00 | 95 | 1010.3 |
| 20260831130519 | 63 | 71 | 0.0 | 0.0 | 0.00 | 0.00 | 0.00 | 95 | 1010.3 |
| 20260831130019 | 62 | 71 | 0.0 | 0.0 | 0.00 | 0.00 | 0.00 | 94 | 1010.3 |
| 20260831125519 | 62 | 71 | 0.0 | 0.0 | 0.00 | 0.00 | 0.00 | 94 | 1010.1 |
| 20260831125019 | 63 | 71 | 0.0 | 0.0 | 0.00 | 0.00 | 0.00 | 95 | 1010.1 |
| 20260831124525 | 63 | 71 | 0.0 | 0.0 | 0.00 | 0.00 | 0.00 | 94 | 1010.1 |
| 20260831124019 | 62 | 71 | 0.0 | 0.0 | 0.00 | 0.00 | 0.00 | 93 | 1010.1 |
| 20260831123516 | 63 | 71 | 0.0 | 0.0 | 0.00 | 0.00 | 0.00 | 94 | 1010.1 |
| 20260831123016 | 63 | 71 | 0.0 | 0.0 | 0.00 | 0.00 | 0.00 | 94 | 1010.1 |
| 20260831122516 | 63 | 71 | 0.0 | 0.0 | 0.00 | 0.00 | 0.00 | 94 | 1010.2 |
| 20260831122019 | 63 | 71 | 0.0 | 0.0 | 0.00 | 0.00 | 0.00 | 94 | 1010.2 |
| 20260831121516 | 63 | 71 | 0.0 | 0.0 | 0.00 | 0.00 | 0.00 | 94 | 1010.2 |
| 20260831121017 | 63 | 71 | 0.0 | 0.0 | 0.00 | 0.00 | 0.00 | 94 | 1010.0 |
| 20260831120515 | 63 | 71 | 0.0 | 0.0 | 0.00 | 0.00 | 0.00 | 94 | 1010.0 |
| 20260831120017 | 63 | 71 | 0.9 | 0.0 | 0.00 | 0.00 | 0.00 | 94 | 1010.0 |
| 20260831115516 | 63 | 71 | 0.9 | 0.0 | 0.00 | 0.00 | 0.00 | 94 | 1010.0 |
| 20260831115016 | 63 | 67 | 0.9 | 0.0 | 0.00 | 0.00 | 0.00 | 94 | 1010.0 |
| 20260831114515 | 63 | 80 | 0.9 | 0.0 | 0.00 | 0.00 | 0.00 | 94 | 1010.0 |
| 20260831114018 | 63 | 81 | 0.9 | 0.0 | 0.00 | 0.00 | 0.00 | 94 | 1010.0 |
| 20260831113515 | 63 | 80 | 0.0 | 0.0 | 0.00 | 0.00 | 0.00 | 93 | 1010.0 |
| 20260831113020 | 63 | 80 | 0.9 | 0.0 | 0.00 | 0.00 | 0.00 | 94 | 1010.0 |
| 20260831112518 | 63 | 94 | 0.0 | 0.0 | 0.00 | 0.00 | 0.00 | 94 | 1010.0 |
| 20260831112014 | 63 | 65 | 0.0 | 0.0 | 0.00 | 0.00 | 0.00 | 94 | 1010.0 |
| 20260831111516 | 63 | 65 | 0.0 | 0.0 | 0.00 | 0.00 | 0.00 | 94 | 1010.0 |
| 20260831111014 | 63 | 65 | 0.9 | 0.0 | 0.00 | 0.00 | 0.00 | 94 | 1010.0 |
| 20260831110516 | 63 | 65 | 0.9 | 0.0 | 0.00 | 0.00 | 0.00 | 94 | 1010.0 |
| 20260831110014 | 63 | 65 | 0.9 | 0.0 | 0.00 | 0.00 | 0.00 | 94 | 1010.0 |
| 20260831105515 | 63 | 65 | 0.9 | 0.0 | 0.00 | 0.00 | 0.00 | 94 | 1010.0 |
| 20260831105014 | 63 | 222 | 0.9 | 0.0 | 0.00 | 0.00 | 0.00 | 94 | 1010.0 |
| 20260831104513 | 63 | 222 | 0.0 | 0.0 | 0.00 | 0.00 | 0.00 | 94 | 1010.0 |
| 20260831104012 | 63 | 222 | 0.0 | 0.0 | 0.00 | 0.00 | 0.00 | 94 | 1010.0 |
| 20260831103515 | 63 | 222 | 0.0 | 0.0 | 0.00 | 0.00 | 0.00 | 94 | 1010.0 |
| 20260831103012 | 63 | 222 | 0.0 | 0.0 | 0.00 | 0.00 | 0.00 | 93 | 1010.0 |
| 20260831102511 | 63 | 222 | 0.0 | 0.0 | 0.00 | 0.00 | 0.00 | 93 | 1010.0 |
| 20260831102011 | 63 | 222 | 0.0 | 0.0 | 0.00 | 0.00 | 0.00 | 93 | 1010.0 |
| 20260831101511 | 63 | 222 | 0.0 | 0.0 | 0.00 | 0.00 | 0.00 | 93 | 1010.0 |
| 20260831101011 | 64 | 222 | 0.0 | 0.0 | 0.00 | 0.00 | 0.00 | 93 | 1010.1 |
| 20260831100509 | 64 | 222 | 0.0 | 0.0 | 0.00 | 0.00 | 0.00 | 93 | 1010.1 |
| 20260831100009 | 64 | 222 | 0.0 | 0.0 | 0.00 | 0.00 | 0.00 | 93 | 1010.1 |
| 20260831095509 | 64 | 222 | 0.0 | 0.0 | 0.00 | 0.00 | 0.00 | 92 | 1010.1 |
| 20260831095008 | 64 | 222 | 0.0 | 0.0 | 0.00 | 0.00 | 0.00 | 92 | 1010.1 |
| 20260831094509 | 64 | 222 | 0.0 | 0.0 | 0.00 | 0.00 | 0.00 | 92 | 1010.1 |
| 20260831094008 | 64 | 166 | 0.9 | 0.0 | 0.00 | 0.00 | 0.00 | 92 | 1010.1 |
| 20260831093507 | 64 | 208 | 0.9 | 0.0 | 0.00 | 0.00 | 0.00 | 91 | 1010.1 |
| 20260831093008 | 65 | 132 | 0.0 | 0.0 | 0.00 | 0.00 | 0.00 | 91 | 1010.1 |
| 20260831092509 | 65 | 163 | 0.9 | 0.0 | 0.00 | 0.00 | 0.00 | 91 | 1009.9 |
| 20260831092006 | 65 | 169 | 0.9 | 0.0 | 0.00 | 0.00 | 0.00 | 91 | 1009.9 |
| 20260831091506 | 65 | 168 | 0.9 | 0.0 | 0.00 | 0.00 | 0.00 | 90 | 1009.9 |
| 20260831091005 | 66 | 148 | 0.0 | 0.0 | 0.00 | 0.00 | 0.00 | 91 | 1010.2 |
| 20260831090505 | 66 | 202 | 0.0 | 0.0 | 0.00 | 0.00 | 0.00 | 90 | 1010.2 |
| 20260831090007 | 65 | 202 | 0.9 | 0.0 | 0.00 | 0.00 | 0.00 | 89 | 1010.2 |
| 20260831085503 | 65 | 202 | 0.9 | 0.0 | 0.00 | 0.00 | 0.00 | 88 | 1010.2 |
| 20260831085006 | 65 | 202 | 0.0 | 0.0 | 0.00 | 0.00 | 0.00 | 86 | 1010.2 |
| 20260831084503 | 65 | 69 | 0.0 | 0.0 | 0.00 | 0.00 | 0.00 | 84 | 1010.2 |
| 20260831084002 | 65 | 69 | 0.0 | 0.0 | 0.00 | 0.00 | 0.00 | 81 | 1010.2 |
| 20260831083502 | 65 | 69 | 0.0 | 0.0 | 0.00 | 0.00 | 0.00 | 79 | 1010.2 |
| 20260831083003 | 65 | 69 | 0.0 | 0.0 | 0.00 | 0.00 | 0.00 | 76 | 1010.2 |
| 20260831082501 | 65 | 69 | 0.0 | 0.0 | 0.00 | 0.00 | 0.00 | 74 | 1010.3 |
| 20260831082100 | 65 | 69 | 0.0 | 0.0 | 0.00 | 0.00 | 0.00 | 75 | 1010.3 |
| 20260831081600 | 65 | 69 | 0.9 | 0.0 | 0.00 | 0.00 | 0.00 | 73 | 1010.3 |
| 20260831081058 | 66 | 138 | 0.0 | 0.0 | 0.00 | 0.00 | 0.00 | 80 | 1010.5 |
| 20260831080557 | 65 | 138 | 0.0 | 0.0 | 0.00 | 0.00 | 0.00 | 75 | 1010.5 |
| 20260831080056 | 66 | 138 | 0.0 | 0.0 | 0.00 | 0.00 | 0.00 | 71 | 1010.5 |
| 20260831075555 | 66 | 138 | 0.0 | 0.0 | 0.00 | 0.00 | 0.00 | 70 | 1010.4 |
| 20260831075055 | 66 | 138 | 0.0 | 0.0 | 0.00 | 0.00 | 0.00 | 69 | 1010.4 |
| 20260831074555 | 66 | 138 | 0.0 | 0.0 | 0.00 | 0.00 | 0.00 | 68 | 1010.4 |
| 20260831074054 | 66 | 138 | 0.0 | 0.0 | 0.00 | 0.00 | 0.00 | 67 | 1010.3 |
| 20260831073554 | 66 | 138 | 0.0 | 0.0 | 0.00 | 0.00 | 0.00 | 66 | 1010.3 |
| 20260831073103 | 66 | 138 | 0.0 | 0.0 | 0.00 | 0.00 | 0.00 | 67 | 1010.3 |
| 20260831072552 | 67 | 138 | 0.0 | 0.0 | 0.00 | 0.00 | 0.00 | 67 | 1010.2 |
| 20260831072051 | 67 | 138 | 0.0 | 0.0 | 0.00 | 0.00 | 0.00 | 68 | 1010.2 |
| 20260831071552 | 67 | 138 | 0.0 | 0.0 | 0.00 | 0.00 | 0.00 | 67 | 1010.2 |
| 20260831071052 | 67 | 138 | 0.9 | 0.0 | 0.00 | 0.00 | 0.00 | 68 | 1010.1 |
| 20260831070551 | 67 | 138 | 0.9 | 0.0 | 0.00 | 0.00 | 0.00 | 69 | 1010.1 |
| 20260831070050 | 67 | 101 | 1.7 | 0.0 | 0.00 | 0.00 | 0.00 | 70 | 1010.1 |
| 20260831065550 | 67 | 282 | 2.6 | 0.0 | 0.00 | 0.00 | 0.00 | 71 | 1010.0 |
| 20260831065050 | 67 | 290 | 1.7 | 0.0 | 0.00 | 0.00 | 0.00 | 70 | 1010.0 |
| 20260831064549 | 67 | 289 | 1.7 | 0.0 | 0.00 | 0.00 | 0.00 | 69 | 1010.0 |
| 20260831064049 | 67 | 314 | 1.7 | 0.0 | 0.00 | 0.00 | 0.00 | 70 | 1010.0 |
| 20260831063548 | 67 | 317 | 0.9 | 0.0 | 0.00 | 0.00 | 0.00 | 70 | 1010.0 |
| 20260831063051 | 67 | 355 | 0.0 | 0.0 | 0.00 | 0.00 | 0.00 | 71 | 1010.0 |
| 20260831062548 | 67 | 129 | 0.9 | 0.0 | 0.00 | 0.00 | 0.00 | 75 | 1010.0 |
| 20260831062048 | 67 | 129 | 1.7 | 0.0 | 0.00 | 0.00 | 0.00 | 75 | 1010.0 |
| 20260831061548 | 67 | 147 | 2.6 | 0.0 | 0.00 | 0.00 | 0.00 | 75 | 1010.0 |
| 20260831061048 | 67 | 244 | 3.5 | 0.0 | 0.00 | 0.00 | 0.00 | 75 | 1010.0 |
| 20260831060547 | 66 | 262 | 1.7 | 0.0 | 0.00 | 0.00 | 0.00 | 75 | 1010.0 |
| 20260831060048 | 65 | 248 | 0.9 | 0.0 | 0.00 | 0.00 | 0.00 | 75 | 1010.0 |
| 20260831055551 | 65 | 217 | 0.9 | 0.0 | 0.00 | 0.00 | 0.00 | 77 | 1010.1 |
| 20260831055048 | 65 | 294 | 0.9 | 0.0 | 0.00 | 0.00 | 0.00 | 81 | 1010.1 |
| 20260831054547 | 64 | 288 | 1.7 | 0.0 | 0.00 | 0.00 | 0.00 | 86 | 1010.1 |
| 20260831054046 | 65 | 277 | 0.9 | 0.0 | 0.00 | 0.00 | 0.00 | 90 | 1010.0 |
| 20260831053545 | 65 | 284 | 0.0 | 0.0 | 0.00 | 0.00 | 0.00 | 92 | 1010.0 |
| 20260831053047 | 66 | 219 | 0.0 | 0.0 | 0.00 | 0.00 | 0.00 | 92 | 1010.0 |
| 20260831052544 | 66 | 174 | 0.9 | 0.0 | 0.00 | 0.00 | 0.00 | 93 | 1010.1 |
| 20260831052046 | 66 | 212 | 1.7 | 0.0 | 0.00 | 0.00 | 0.00 | 92 | 1010.1 |
| 20260831051552 | 66 | 207 | 0.9 | 0.0 | 0.00 | 0.00 | 0.00 | 92 | 1010.1 |
| 20260831051044 | 66 | 199 | 0.9 | 0.0 | 0.00 | 0.00 | 0.00 | 91 | 1010.0 |
| 20260831050545 | 66 | 171 | 1.7 | 0.0 | 0.00 | 0.00 | 0.00 | 91 | 1010.0 |
| 20260831050044 | 67 | 157 | 1.7 | 0.0 | 0.00 | 0.00 | 0.00 | 90 | 1010.0 |
| 20260831045544 | 67 | 157 | 2.6 | 0.0 | 0.00 | 0.00 | 0.00 | 89 | 1010.0 |
| 20260831045043 | 67 | 180 | 1.7 | 0.0 | 0.00 | 0.00 | 0.00 | 88 | 1010.0 |
| 20260831044546 | 67 | 206 | 0.9 | 0.0 | 0.00 | 0.00 | 0.00 | 86 | 1010.0 |
| 20260831044043 | 67 | 171 | 0.9 | 0.0 | 0.00 | 0.00 | 0.00 | 84 | 1010.0 |
| 20260831043542 | 67 | 164 | 0.9 | 0.0 | 0.00 | 0.00 | 0.00 | 82 | 1010.0 |
| 20260831043042 | 67 | 178 | 0.9 | 0.0 | 0.00 | 0.00 | 0.00 | 79 | 1010.0 |
| 20260831042542 | 67 | 174 | 0.9 | 0.0 | 0.00 | 0.00 | 0.00 | 78 | 1010.0 |
| 20260831042042 | 67 | 197 | 0.0 | 0.0 | 0.00 | 0.00 | 0.00 | 77 | 1010.0 |
| 20260831041637 | 67 | 223 | 0.9 | 0.0 | 0.00 | 0.00 | 0.00 | 76 | 1010.0 |
| 20260831041043 | 68 | 223 | 0.9 | 0.0 | 0.00 | 0.00 | 0.00 | 76 | 1009.6 |
| 20260831040542 | 68 | 266 | 0.9 | 0.0 | 0.00 | 0.00 | 0.00 | 75 | 1009.6 |
| 20260831040043 | 68 | 198 | 0.9 | 0.0 | 0.00 | 0.00 | 0.00 | 74 | 1009.6 |
| 20260831035541 | 68 | 198 | 1.7 | 0.0 | 0.00 | 0.00 | 0.00 | 73 | 1009.4 |
| 20260831035041 | 68 | 165 | 1.7 | 0.0 | 0.00 | 0.00 | 0.00 | 72 | 1009.4 |
| 20260831034542 | 68 | 160 | 1.7 | 0.0 | 0.00 | 0.00 | 0.00 | 72 | 1009.4 |
| 20260831034041 | 68 | 212 | 1.7 | 0.0 | 0.00 | 0.00 | 0.00 | 71 | 1009.1 |
| 20260831033541 | 69 | 241 | 0.9 | 0.0 | 0.00 | 0.00 | 0.00 | 71 | 1009.1 |
| 20260831033042 | 69 | 247 | 0.9 | 0.0 | 0.00 | 0.00 | 0.00 | 70 | 1009.1 |
| 20260831032541 | 69 | 285 | 1.7 | 0.0 | 0.00 | 0.00 | 0.00 | 70 | 1008.9 |
| 20260831032041 | 69 | 213 | 2.6 | 0.0 | 0.00 | 0.00 | 0.00 | 69 | 1008.9 |
| 20260831031541 | 69 | 264 | 2.6 | 0.0 | 0.00 | 0.00 | 0.00 | 69 | 1008.9 |
| 20260831031040 | 68 | 251 | 2.6 | 0.0 | 0.00 | 0.00 | 0.00 | 70 | 1009.1 |
| 20260831030542 | 68 | 306 | 2.6 | 0.0 | 0.00 | 0.00 | 0.00 | 71 | 1009.1 |
| 20260831030043 | 68 | 284 | 2.6 | 0.0 | 0.00 | 0.00 | 0.00 | 71 | 1009.1 |
| 20260831025540 | 68 | 290 | 1.7 | 0.0 | 0.00 | 0.00 | 0.00 | 71 | 1009.0 |
| 20260831025040 | 68 | 310 | 1.7 | 0.0 | 0.00 | 0.00 | 0.00 | 71 | 1009.0 |
| 20260831024554 | 68 | 320 | 1.7 | 0.0 | 0.00 | 0.00 | 0.00 | 71 | 1009.0 |
| 20260831024040 | 68 | 286 | 1.7 | 0.0 | 0.00 | 0.00 | 0.00 | 72 | 1009.0 |
| 20260831023541 | 67 | 247 | 2.6 | 0.0 | 0.00 | 0.00 | 0.00 | 73 | 1009.0 |
| 20260831023038 | 67 | 314 | 2.6 | 0.0 | 0.00 | 0.00 | 0.00 | 74 | 1009.0 |
| 20260831022538 | 68 | 115 | 1.7 | 0.0 | 0.00 | 0.00 | 0.00 | 76 | 1009.0 |
| 20260831022038 | 68 | 300 | 1.7 | 0.0 | 0.00 | 0.00 | 0.00 | 76 | 1009.0 |
| 20260831021548 | 68 | 223 | 1.7 | 0.0 | 0.00 | 0.00 | 0.00 | 77 | 1009.0 |
| 20260831021039 | 68 | 207 | 1.7 | 0.0 | 0.00 | 0.00 | 0.00 | 78 | 1009.2 |
| 20260831020539 | 68 | 164 | 0.9 | 0.0 | 0.00 | 0.00 | 0.00 | 80 | 1009.2 |
| 20260831020038 | 68 | 167 | 0.9 | 0.0 | 0.00 | 0.00 | 0.00 | 83 | 1009.2 |
| 20260831015541 | 68 | 280 | 1.7 | 0.0 | 0.00 | 0.00 | 0.00 | 84 | 1009.1 |
| 20260831015037 | 69 | 260 | 1.7 | 0.0 | 0.00 | 0.00 | 0.00 | 84 | 1009.1 |
| 20260831014537 | 69 | 196 | 1.7 | 0.0 | 0.00 | 0.00 | 0.00 | 84 | 1009.1 |
| 20260831014037 | 69 | 5 | 1.7 | 0.0 | 0.00 | 0.00 | 0.00 | 84 | 1009.0 |
| 20260831013537 | 70 | 227 | 1.7 | 0.0 | 0.00 | 0.00 | 0.00 | 84 | 1009.0 |
| 20260831013037 | 70 | 209 | 1.7 | 0.0 | 0.00 | 0.00 | 0.00 | 84 | 1009.0 |
| 20260831012537 | 71 | 286 | 2.6 | 0.0 | 0.00 | 0.00 | 0.00 | 83 | 1008.9 |
| 20260831012037 | 71 | 234 | 2.6 | 0.0 | 0.00 | 0.00 | 0.00 | 82 | 1008.9 |
| 20260831011545 | 72 | 218 | 2.6 | 0.0 | 0.00 | 0.00 | 0.00 | 80 | 1008.9 |
| 20260831011036 | 73 | 209 | 2.6 | 0.0 | 0.00 | 0.00 | 0.00 | 79 | 1008.8 |
| 20260831010537 | 74 | 217 | 2.6 | 0.0 | 0.00 | 0.00 | 0.00 | 78 | 1008.8 |
| 20260831010043 | 75 | 183 | 2.6 | 0.0 | 0.00 | 0.00 | 0.00 | 76 | 1008.8 |
| 20260831005536 | 75 | 209 | 2.6 | 0.0 | 0.00 | 0.00 | 0.00 | 75 | 1008.8 |
| 20260831005038 | 76 | 202 | 1.7 | 0.0 | 0.00 | 0.00 | 0.00 | 74 | 1008.8 |
| 20260831004536 | 76 | 191 | 1.7 | 0.0 | 0.00 | 0.00 | 0.00 | 74 | 1008.8 |
| 20260831004036 | 76 | 206 | 1.7 | 0.0 | 0.00 | 0.00 | 0.00 | 75 | 1008.7 |
| 20260831003535 | 76 | 257 | 1.7 | 0.0 | 0.00 | 0.00 | 0.00 | 74 | 1008.7 |
| 20260831003038 | 76 | 234 | 2.6 | 0.0 | 0.00 | 0.00 | 0.00 | 74 | 1008.7 |
| 20260831002534 | 76 | 205 | 2.6 | 0.0 | 0.00 | 0.00 | 0.00 | 73 | 1008.7 |
| 20260831002034 | 77 | 249 | 2.6 | 0.0 | 0.00 | 0.00 | 0.00 | 73 | 1008.7 |
| 20260831001537 | 78 | 219 | 2.6 | 0.0 | 0.00 | 0.00 | 0.00 | 73 | 1008.7 |
| 20260831001038 | 78 | 199 | 1.7 | 0.0 | 0.00 | 0.00 | 0.00 | 70 | 1008.7 |
| 20260831000534 | 78 | 238 | 2.6 | 0.0 | 0.00 | 0.00 | 0.00 | 70 | 1008.7 |
| 20260831000042 | 77 | 220 | 3.5 | 0.0 | 0.00 | 0.00 | 0.00 | 72 | 1008.7 |
| 20260830235534 | 77 | 176 | 3.5 | 0.0 | 0.00 | 0.00 | 0.00 | 70 | 1008.7 |
| 20260830235034 | 77 | 201 | 2.6 | 0.0 | 0.00 | 0.00 | 0.00 | 69 | 1008.7 |
| 20260830234537 | 77 | 191 | 2.6 | 0.0 | 0.00 | 0.00 | 0.00 | 69 | 1008.7 |
| 20260830234035 | 77 | 162 | 2.6 | 0.0 | 0.00 | 0.00 | 0.00 | 71 | 1008.7 |
| 20260830233533 | 77 | 194 | 2.6 | 0.0 | 0.00 | 0.00 | 0.00 | 76 | 1008.7 |
| 20260830233035 | 77 | 172 | 2.6 | 0.0 | 0.00 | 0.00 | 0.00 | 76 | 1008.7 |
| 20260830232533 | 77 | 188 | 3.5 | 0.0 | 0.00 | 0.00 | 0.00 | 75 | 1008.7 |
| 20260830232033 | 78 | 157 | 2.6 | 0.0 | 0.00 | 0.00 | 0.00 | 73 | 1008.7 |
| 20260830231532 | 79 | 137 | 2.6 | 0.0 | 0.00 | 0.00 | 0.00 | 71 | 1008.7 |
| 20260830231036 | 79 | 179 | 3.5 | 0.0 | 0.00 | 0.00 | 0.00 | 71 | 1008.8 |
| 20260830230532 | 79 | 158 | 3.5 | 0.0 | 0.00 | 0.00 | 0.00 | 69 | 1008.8 |
| 20260830230041 | 80 | 169 | 2.6 | 0.0 | 0.00 | 0.00 | 0.00 | 64 | 1008.8 |
| 20260830225532 | 80 | 173 | 2.6 | 0.0 | 0.00 | 0.00 | 0.00 | 67 | 1009.1 |
| 20260830225032 | 80 | 187 | 2.6 | 0.0 | 0.00 | 0.00 | 0.00 | 65 | 1009.1 |
| 20260830224532 | 80 | 191 | 2.6 | 0.0 | 0.00 | 0.00 | 0.00 | 64 | 1009.1 |
| 20260830224032 | 80 | 198 | 2.6 | 0.0 | 0.00 | 0.00 | 0.00 | 62 | 1009.2 |
| 20260830223532 | 80 | 186 | 2.6 | 0.0 | 0.00 | 0.00 | 0.00 | 65 | 1009.2 |
| 20260830223033 | 80 | 155 | 2.6 | 0.0 | 0.00 | 0.00 | 0.00 | 64 | 1009.2 |
| 20260830222532 | 80 | 170 | 2.6 | 0.0 | 0.00 | 0.00 | 0.00 | 65 | 1009.1 |
| 20260830222033 | 80 | 168 | 2.6 | 0.0 | 0.00 | 0.00 | 0.00 | 66 | 1009.1 |
| 20260830221534 | 80 | 167 | 2.6 | 0.0 | 0.00 | 0.00 | 0.00 | 64 | 1009.1 |
| 20260830221031 | 81 | 199 | 2.6 | 0.0 | 0.00 | 0.00 | 0.00 | 65 | 1009.3 |
| 20260830220531 | 81 | 162 | 2.6 | 0.0 | 0.00 | 0.00 | 0.00 | 63 | 1009.3 |
| 20260830220033 | 81 | 170 | 2.6 | 0.0 | 0.00 | 0.00 | 0.00 | 60 | 1009.3 |
| 20260830215530 | 81 | 217 | 1.7 | 0.0 | 0.00 | 0.00 | 0.00 | 64 | 1009.7 |
| 20260830215029 | 80 | 212 | 1.7 | 0.0 | 0.00 | 0.00 | 0.00 | 60 | 1009.7 |
| 20260830214528 | 79 | 209 | 2.6 | 0.0 | 0.00 | 0.00 | 0.00 | 69 | 1009.7 |
| 20260830214025 | 78 | 199 | 2.6 | 0.0 | 0.00 | 0.00 | 0.00 | 74 | 1010.0 |
| 20260830213524 | 78 | 171 | 2.6 | 0.0 | 0.00 | 0.00 | 0.00 | 75 | 1010.0 |
| 20260830213033 | 78 | 196 | 2.6 | 0.0 | 0.00 | 0.00 | 0.00 | 76 | 1010.0 |
| 20260830212523 | 78 | 176 | 2.6 | 0.0 | 0.00 | 0.00 | 0.00 | 76 | 1010.2 |
| 20260830212023 | 77 | 178 | 2.6 | 0.0 | 0.00 | 0.00 | 0.00 | 78 | 1010.2 |
| 20260830211523 | 77 | 157 | 2.6 | 0.0 | 0.00 | 0.00 | 0.00 | 78 | 1010.2 |
| 20260830211022 | 77 | 155 | 2.6 | 0.0 | 0.00 | 0.00 | 0.00 | 79 | 1010.3 |
| 20260830210520 | 77 | 147 | 2.6 | 0.0 | 0.00 | 0.00 | 0.00 | 80 | 1010.3 |
| 20260830210024 | 76 | 189 | 2.6 | 0.0 | 0.00 | 0.00 | 0.00 | 81 | 1010.3 |
| 20260830205520 | 76 | 167 | 3.5 | 0.0 | 0.00 | 0.00 | 0.00 | 81 | 1010.5 |
| 20260830205020 | 76 | 185 | 3.5 | 0.0 | 0.00 | 0.00 | 0.00 | 81 | 1010.5 |
| 20260830204520 | 76 | 238 | 2.6 | 0.0 | 0.00 | 0.00 | 0.00 | 82 | 1010.5 |
| 20260830204020 | 76 | 200 | 3.5 | 0.0 | 0.00 | 0.00 | 0.00 | 82 | 1010.4 |
| 20260830203520 | 76 | 149 | 3.5 | 0.0 | 0.00 | 0.00 | 0.00 | 82 | 1010.4 |
| 20260830203020 | 76 | 202 | 3.5 | 0.0 | 0.00 | 0.00 | 0.00 | 81 | 1010.4 |
| 20260830202519 | 77 | 209 | 2.6 | 0.0 | 0.00 | 0.00 | 0.00 | 81 | 1010.4 |
| 20260830202019 | 76 | 179 | 3.5 | 0.0 | 0.00 | 0.00 | 0.00 | 81 | 1010.4 |
| 20260830201519 | 77 | 193 | 2.6 | 0.0 | 0.00 | 0.00 | 0.00 | 81 | 1010.4 |
| 20260830201018 | 76 | 207 | 2.6 | 0.0 | 0.00 | 0.00 | 0.00 | 81 | 1010.4 |
| 20260830200518 | 76 | 160 | 2.6 | 0.0 | 0.00 | 0.00 | 0.00 | 83 | 1010.4 |
| 20260830200018 | 75 | 168 | 3.5 | 0.0 | 0.00 | 0.00 | 0.00 | 82 | 1010.4 |
| 20260830195518 | 76 | 176 | 3.5 | 0.0 | 0.00 | 0.00 | 0.00 | 81 | 1010.4 |
| 20260830195018 | 76 | 201 | 2.6 | 0.0 | 0.00 | 0.00 | 0.00 | 82 | 1010.4 |
| 20260830194521 | 76 | 175 | 2.6 | 0.0 | 0.00 | 0.00 | 0.00 | 81 | 1010.4 |
| 20260830194016 | 76 | 167 | 3.5 | 0.0 | 0.00 | 0.00 | 0.00 | 82 | 1010.4 |
| 20260830193515 | 76 | 191 | 2.6 | 0.0 | 0.00 | 0.00 | 0.00 | 81 | 1010.4 |
| 20260830193016 | 76 | 192 | 2.6 | 0.0 | 0.00 | 0.00 | 0.00 | 80 | 1010.4 |
| 20260830192515 | 76 | 158 | 2.6 | 0.0 | 0.00 | 0.00 | 0.00 | 81 | 1010.6 |
| 20260830192015 | 76 | 159 | 2.6 | 0.0 | 0.00 | 0.00 | 0.00 | 81 | 1010.6 |
| 20260830191519 | 76 | 157 | 2.6 | 0.0 | 0.00 | 0.00 | 0.00 | 81 | 1010.6 |
| 20260830191015 | 76 | 152 | 1.7 | 0.0 | 0.00 | 0.00 | 0.00 | 82 | 1010.7 |
| 20260830190515 | 76 | 144 | 1.7 | 0.0 | 0.00 | 0.00 | 0.00 | 82 | 1010.7 |
| 20260830190015 | 75 | 206 | 2.6 | 0.0 | 0.00 | 0.00 | 0.00 | 83 | 1010.7 |
| 20260830185518 | 75 | 191 | 2.6 | 0.0 | 0.00 | 0.00 | 0.00 | 82 | 1010.9 |
| 20260830185014 | 76 | 221 | 2.6 | 0.0 | 0.00 | 0.00 | 0.00 | 81 | 1010.9 |
| 20260830184520 | 76 | 196 | 1.7 | 0.0 | 0.00 | 0.00 | 0.00 | 81 | 1010.9 |
| 20260830184013 | 76 | 218 | 1.7 | 0.0 | 0.00 | 0.00 | 0.00 | 81 | 1010.8 |
| 20260830183517 | 76 | 215 | 2.6 | 0.0 | 0.00 | 0.00 | 0.00 | 82 | 1010.8 |
| 20260830183011 | 76 | 197 | 2.6 | 0.0 | 0.00 | 0.00 | 0.00 | 82 | 1010.8 |
| 20260830182510 | 75 | 198 | 1.7 | 0.0 | 0.00 | 0.00 | 0.00 | 83 | 1010.7 |
| 20260830182010 | 75 | 136 | 2.6 | 0.0 | 0.00 | 0.00 | 0.00 | 82 | 1010.7 |
| 20260830181509 | 75 | 153 | 2.6 | 0.0 | 0.00 | 0.00 | 0.00 | 83 | 1010.7 |
| 20260830181011 | 75 | 195 | 2.6 | 0.0 | 0.00 | 0.00 | 0.00 | 83 | 1010.7 |
| 20260830180508 | 75 | 128 | 2.6 | 0.0 | 0.00 | 0.00 | 0.00 | 83 | 1010.7 |
| 20260830180008 | 75 | 159 | 2.6 | 0.0 | 0.00 | 0.00 | 0.00 | 84 | 1010.7 |
| 20260830175508 | 75 | 152 | 2.6 | 0.0 | 0.00 | 0.00 | 0.00 | 84 | 1010.8 |
| 20260830175008 | 75 | 148 | 1.7 | 0.0 | 0.00 | 0.00 | 0.00 | 84 | 1010.8 |
| 20260830174507 | 74 | 178 | 2.6 | 0.0 | 0.00 | 0.00 | 0.00 | 84 | 1010.8 |
| 20260830174007 | 75 | 142 | 2.6 | 0.0 | 0.00 | 0.00 | 0.00 | 83 | 1010.7 |
| 20260830173506 | 75 | 182 | 1.7 | 0.0 | 0.00 | 0.00 | 0.00 | 83 | 1010.7 |
| 20260830173006 | 75 | 148 | 1.7 | 0.0 | 0.00 | 0.00 | 0.00 | 84 | 1010.7 |
| 20260830172506 | 75 | 165 | 1.7 | 0.0 | 0.00 | 0.00 | 0.00 | 84 | 1010.6 |
| 20260830172010 | 75 | 189 | 2.6 | 0.0 | 0.00 | 0.00 | 0.00 | 83 | 1010.6 |
| 20260830171505 | 74 | 196 | 2.6 | 0.0 | 0.00 | 0.00 | 0.00 | 84 | 1010.6 |
| 20260830171006 | 74 | 210 | 2.6 | 0.0 | 0.00 | 0.00 | 0.00 | 83 | 1010.3 |
| 20260830170504 | 75 | 161 | 1.7 | 0.0 | 0.00 | 0.00 | 0.00 | 82 | 1010.3 |
| 20260830170005 | 75 | 215 | 1.7 | 0.0 | 0.00 | 0.00 | 0.00 | 82 | 1010.3 |
| 20260830165504 | 75 | 173 | 1.7 | 0.0 | 0.00 | 0.00 | 0.00 | 82 | 1010.3 |
| 20260830165004 | 75 | 196 | 1.7 | 0.0 | 0.00 | 0.00 | 0.00 | 81 | 1010.3 |
| 20260830164505 | 75 | 198 | 0.9 | 0.0 | 0.00 | 0.00 | 0.00 | 81 | 1010.3 |
| 20260830164002 | 75 | 117 | 0.9 | 0.0 | 0.00 | 0.00 | 0.00 | 82 | 1010.3 |